Blytheville Muni Airport, AR

7:57 AM CDT on October 21, 2017 (GMT -0500)
Blytheville Municipal

Weather History for KHKA - April, 2013

Change the Weather History Date:

Friday, April 12, 2013

  Actual Average Record
Temperature  
Mean Temperature 52 °F -  
Max Temperature 64 °F 72 °F 90 °F (1941)
Min Temperature 41 °F 50 °F 30 °F (1957)
Degree Days  
Heating Degree Days 12    
Growing Degree Days 2 (Base 50)    
Moisture  
Dew Point 40 °F    
Average Humidity 67    
Maximum Humidity 89    
Minimum Humidity 45    
Precipitation  
Precipitation 0.00 in - - ()
Sea Level Pressure  
Sea Level Pressure 29.90 in    
Wind  
Wind Speed 8 mph (WSW)    
Max Wind Speed 16 mph    
Max Gust Speed 25 mph    
Visibility 10 miles    
Events      
Averages and records for this station are not official NWS values.
T = Trace of Precipitation, MM = Missing Value Source: NWS Daily Summary

Daily Weather History Graph

Daily Weather History Graph

Search for Another Location

Airport or City:

Trip Planner

Search our weather history database for the weather conditions in past years. The results will help you decide how hot, cold, wet, or windy it might be!

Date:

Astronomy

Apr. 12, 2013 Rise Set
Actual Time 6:29 AM CDT 7:30 PM CDT
Civil Twilight 6:03 AM CDT 7:56 PM CDT
Nautical Twilight 5:32 AM CDT 8:28 PM CDT
Astronomical Twilight 5:00 AM CDT 9:00 PM CDT
Moon 7:43 AM CDT (4/12) 9:56 PM CDT (4/12)
Length of Visible Light 13h 53m
Length of Day
13h 00m
Waxing Crescent, 5% of the Moon is Illuminated
Apr 12
Waxing Crescent
Apr 18
First Quarter
Apr 25
Full
May 2
Last Quarter
May 9
New

Hourly Weather History & Observations

Time (CDT) Temp. Windchill Dew Point Humidity Pressure Visibility Wind Dir Wind Speed Gust Speed Precip Events Conditions
12:53 AM 45.0 °F 40.6 °F 37.9 °F 76% 29.84 in 10.0 mi WNW 8.1 mph - N/A   Clear
1:53 AM 43.0 °F 41.3 °F 37.9 °F 82% 29.83 in 10.0 mi West 3.5 mph - N/A   Clear
2:53 AM 43.0 °F 40.3 °F 36.0 °F 76% 29.84 in 10.0 mi SW 4.6 mph - N/A   Clear
3:53 AM 43.0 °F 40.3 °F 35.1 °F 74% 29.85 in 10.0 mi West 4.6 mph - N/A   Clear
4:53 AM 41.0 °F 38.0 °F 37.0 °F 86% 29.86 in 10.0 mi SSW 4.6 mph - N/A   Clear
5:53 AM 41.0 °F 38.0 °F 37.9 °F 89% 29.87 in 10.0 mi SSW 4.6 mph - N/A   Clear
6:05 AM 41.0 °F 38.0 °F 37.4 °F 87% 29.87 in 10.0 mi SSW 4.6 mph - N/A   Partly Cloudy
6:53 AM 41.0 °F 38.0 °F 37.9 °F 89% 29.88 in 10.0 mi SSW 4.6 mph - N/A   Clear
7:53 AM 46.0 °F 42.5 °F 41.0 °F 83% 29.89 in 10.0 mi SSW 6.9 mph - N/A   Clear
8:53 AM 50.0 °F - 41.0 °F 71% 29.89 in 10.0 mi SW 8.1 mph - N/A   Clear
9:53 AM 53.1 °F - 39.9 °F 61% 29.91 in 10.0 mi SW 15.0 mph 20.7 mph N/A   Clear
10:53 AM 55.9 °F - 41.0 °F 57% 29.92 in 10.0 mi SW 13.8 mph 23.0 mph N/A   Clear
11:51 AM 57.2 °F - 41.0 °F 55% 29.91 in 10.0 mi WSW 13.8 mph 23.0 mph N/A   Partly Cloudy
11:53 AM 57.9 °F - 41.0 °F 53% 29.91 in 10.0 mi WSW 16.1 mph 23.0 mph N/A   Partly Cloudy
12:53 PM 59.0 °F - 41.0 °F 51% 29.92 in 10.0 mi WSW 15.0 mph 24.2 mph N/A   Partly Cloudy
1:53 PM 61.0 °F - 43.0 °F 52% 29.92 in 10.0 mi West 13.8 mph 21.9 mph N/A   Scattered Clouds
2:53 PM 62.1 °F - 42.1 °F 48% 29.91 in 10.0 mi West 13.8 mph 25.3 mph N/A   Partly Cloudy
3:53 PM 63.0 °F - 41.0 °F 45% 29.91 in 10.0 mi West 15.0 mph 23.0 mph N/A   Clear
4:53 PM 64.0 °F - 42.1 °F 45% 29.90 in 10.0 mi West 12.7 mph - N/A   Clear
5:53 PM 63.0 °F - 41.0 °F 45% 29.91 in 10.0 mi WNW 15.0 mph 20.7 mph N/A   Clear
6:53 PM 61.0 °F - 41.0 °F 48% 29.91 in 10.0 mi NW 9.2 mph - N/A   Clear
7:53 PM 52.0 °F - 46.0 °F 80% 29.93 in 10.0 mi NW 6.9 mph - N/A   Clear
8:53 PM 52.0 °F - 44.1 °F 74% 29.95 in 10.0 mi Calm Calm - N/A   Clear
9:53 PM 52.0 °F - 41.0 °F 66% 29.97 in 10.0 mi NNW 12.7 mph - N/A   Clear
10:53 PM 51.1 °F - 39.9 °F 66% 29.99 in 10.0 mi North 15.0 mph - N/A   Clear
11:53 PM 48.0 °F - 39.0 °F 71% 30.03 in 10.0 mi NNE 11.5 mph - N/A   Clear